When you browse on this site, cookies collect data to enhance your experience and personalize the content and advertising you see.
Visit our Privacy Policy to learn more. By continuing to use the site, you agree to this use of cookies and data.
EN

Hourly Weather Liborina

Today, 7 August, Friday

Time Temperature Precipitation Wind Pressure Humidity
00:00 +21°C° 0 mm 0 mps 695 mmHg 95%
01:00 +21°C° 0 mm 0 mps 694 mmHg 95%
02:00 +21°C° 0 mm 0 mps 694 mmHg 95%
03:00 +21°C° 0 mm 0 mps 694 mmHg 95%
04:00 +21°C° 0 mm 0 mps 694 mmHg 95%
05:00 +21°C° 0 mm 0 mps 694 mmHg 94%
06:00 +22°C° 0 mm 0 mps 694 mmHg 92%
07:00 +22°C° 0 mm 0 mps 694 mmHg 91%
08:00 +27°C° 0 mm 1 mps 695 mmHg 78%
09:00 +29°C° 0 mm 1 mps 695 mmHg 66%
10:00 +32°C° 0 mm 1 mps 696 mmHg 54%
11:00 +33°C° 0.2 mm 1 mps 695 mmHg 52%
12:00 +34°C° 0.2 mm 1 mps 695 mmHg 50%
13:00 +35°C° 0.2 mm 1 mps 695 mmHg 49%
14:00 +34°C° 0.7 mm 1 mps 694 mmHg 55%
15:00 +33°C° 0.7 mm 1 mps 693 mmHg 61%
16:00 +32°C° 0.7 mm 1 mps 693 mmHg 67%
17:00 +30°C° 0.9 mm 1 mps 693 mmHg 75%
18:00 +28°C° 0.9 mm 1 mps 693 mmHg 82%
19:00 +26°C° 0.9 mm 1 mps 693 mmHg 90%
20:00 +25°C° 0.2 mm 1 mps 694 mmHg 91%
21:00 +25°C° 0.2 mm 1 mps 694 mmHg 92%
22:00 +24°C° 0.2 mm 1 mps 695 mmHg 93%
23:00 +22°C° 0.1 mm 0 mps 695 mmHg 93%

Tomorrow, 8 August, Saturday

Time Temperature Precipitation Wind Pressure Humidity
00:00 +22°C° 0.1 mm 0 mps 695 mmHg 92%
01:00 +21°C° 0.1 mm 0 mps 694 mmHg 92%
02:00 +21°C° 0 mm 0 mps 694 mmHg 92%
03:00 +21°C° 0 mm 0 mps 694 mmHg 92%
04:00 +21°C° 0 mm 0 mps 694 mmHg 92%
05:00 +21°C° 0 mm 0 mps 694 mmHg 91%
06:00 +22°C° 0 mm 0 mps 695 mmHg 89%
07:00 +22°C° 0 mm 0 mps 695 mmHg 87%
08:00 +27°C° 0 mm 1 mps 695 mmHg 77%
09:00 +29°C° 0 mm 1 mps 696 mmHg 66%
10:00 +32°C° 0 mm 1 mps 696 mmHg 55%
11:00 +33°C° 0.2 mm 1 mps 696 mmHg 54%
12:00 +34°C° 0.2 mm 1 mps 695 mmHg 54%
13:00 +35°C° 0.2 mm 1 mps 694 mmHg 54%
14:00 +34°C° 1 mm 1 mps 694 mmHg 60%
15:00 +33°C° 1 mm 1 mps 693 mmHg 66%
16:00 +32°C° 1 mm 1 mps 693 mmHg 73%
17:00 +30°C° 0.9 mm 1 mps 693 mmHg 79%
18:00 +28°C° 0.9 mm 1 mps 693 mmHg 85%
19:00 +26°C° 0.9 mm 1 mps 693 mmHg 91%
20:00 +25°C° 0.2 mm 1 mps 694 mmHg 91%
21:00 +25°C° 0.2 mm 1 mps 694 mmHg 92%
22:00 +24°C° 0.2 mm 1 mps 695 mmHg 92%
23:00 +24°C° 0 mm 1 mps 695 mmHg 92%

Day after tomorrow, 9 August, Sunday

Time Temperature Precipitation Wind Pressure Humidity
00:00 +22°C° 0 mm 0 mps 695 mmHg 92%
01:00 +22°C° 0 mm 0 mps 695 mmHg 92%
02:00 +22°C° 0 mm 0 mps 694 mmHg 92%
03:00 +21°C° 0 mm 0 mps 694 mmHg 92%
04:00 +21°C° 0 mm 0 mps 694 mmHg 92%
05:00 +22°C° 0 mm 0 mps 694 mmHg 90%
06:00 +22°C° 0 mm 0 mps 695 mmHg 88%
07:00 +23°C° 0 mm 0 mps 695 mmHg 87%
08:00 +27°C° 0 mm 1 mps 696 mmHg 75%
09:00 +30°C° 0 mm 1 mps 696 mmHg 64%
10:00 +32°C° 0 mm 1 mps 696 mmHg 53%
11:00 +33°C° 0.3 mm 1 mps 696 mmHg 53%
12:00 +34°C° 0.3 mm 1 mps 695 mmHg 52%
13:00 +35°C° 0.3 mm 1 mps 694 mmHg 52%
14:00 +34°C° 1 mm 1 mps 694 mmHg 60%
15:00 +32°C° 1 mm 1 mps 693 mmHg 67%
16:00 +31°C° 1 mm 1 mps 692 mmHg 75%
17:00 +29°C° 0.8 mm 1 mps 693 mmHg 80%
18:00 +28°C° 0.8 mm 1 mps 693 mmHg 86%
19:00 +26°C° 0.8 mm 1 mps 693 mmHg 91%
20:00 +25°C° 0.1 mm 1 mps 693 mmHg 92%
21:00 +25°C° 0.1 mm 1 mps 694 mmHg 92%
22:00 +24°C° 0.1 mm 1 mps 695 mmHg 93%
23:00 +22°C° 0 mm 0 mps 694 mmHg 93%

10 August, Monday

Time Temperature Precipitation Wind Pressure Humidity
00:00 +22°C° 0 mm 0 mps 694 mmHg 94%
01:00 +22°C° 0 mm 0 mps 694 mmHg 94%
02:00 +22°C° 0 mm 0 mps 694 mmHg 94%
03:00 +21°C° 0 mm 0 mps 693 mmHg 94%
04:00 +21°C° 0 mm 0 mps 693 mmHg 94%
05:00 +21°C° 0 mm 0 mps 693 mmHg 92%
06:00 +22°C° 0 mm 0 mps 694 mmHg 91%
07:00 +22°C° 0 mm 0 mps 694 mmHg 89%
08:00 +25°C° 0 mm 0 mps 695 mmHg 78%
09:00 +30°C° 0 mm 1 mps 695 mmHg 68%
10:00 +32°C° 0 mm 1 mps 696 mmHg 57%
11:00 +33°C° 0.3 mm 1 mps 695 mmHg 55%
12:00 +34°C° 0.3 mm 1 mps 694 mmHg 54%
13:00 +35°C° 0.3 mm 1 mps 694 mmHg 52%
14:00 +34°C° 0.8 mm 1 mps 693 mmHg 59%
15:00 +32°C° 0.8 mm 1 mps 692 mmHg 66%
16:00 +31°C° 0.8 mm 1 mps 692 mmHg 73%
17:00 +30°C° 0.6 mm 1 mps 692 mmHg 79%
18:00 +28°C° 0.6 mm 1 mps 692 mmHg 86%
19:00 +26°C° 0.6 mm 1 mps 692 mmHg 92%
20:00 +26°C° 0.1 mm 1 mps 693 mmHg 93%
21:00 +25°C° 0.1 mm 1 mps 693 mmHg 94%
22:00 +25°C° 0.1 mm 1 mps 694 mmHg 95%
23:00 +23°C° 0.1 mm 0 mps 694 mmHg 95%

11 August, Tuesday

Time Temperature Precipitation Wind Pressure Humidity
00:00 +22°C° 0.1 mm 0 mps 693 mmHg 95%
01:00 +22°C° 0.1 mm 0 mps 693 mmHg 95%
02:00 +22°C° 0 mm 0 mps 693 mmHg 95%
03:00 +22°C° 0 mm 0 mps 693 mmHg 95%
04:00 +22°C° 0 mm 0 mps 692 mmHg 95%
05:00 +22°C° 0 mm 0 mps 693 mmHg 94%
06:00 +22°C° 0 mm 0 mps 693 mmHg 92%
07:00 +23°C° 0 mm 0 mps 693 mmHg 91%
08:00 +25°C° 0 mm 0 mps 694 mmHg 81%
09:00 +30°C° 0 mm 1 mps 694 mmHg 71%
10:00 +32°C° 0 mm 1 mps 695 mmHg 61%
11:00 +33°C° 0.6 mm 1 mps 694 mmHg 61%
12:00 +33°C° 0.6 mm 1 mps 693 mmHg 61%
13:00 +34°C° 0.6 mm 1 mps 693 mmHg 61%
14:00 +33°C° 1.3 mm 1 mps 692 mmHg 68%
15:00 +32°C° 1.3 mm 1 mps 691 mmHg 75%
16:00 +30°C° 1.3 mm 1 mps 691 mmHg 82%
17:00 +29°C° 1.4 mm 1 mps 691 mmHg 86%
18:00 +27°C° 1.4 mm 1 mps 691 mmHg 90%
19:00 +26°C° 1.4 mm 1 mps 692 mmHg 94%
20:00 +26°C° 0.8 mm 1 mps 692 mmHg 95%
21:00 +25°C° 0.8 mm 1 mps 693 mmHg 96%
22:00 +25°C° 0.8 mm 1 mps 694 mmHg 97%
23:00 +25°C° 0.8 mm 1 mps 693 mmHg 97%

12 August, Wednesday

Time Temperature Precipitation Wind Pressure Humidity
00:00 +23°C° 0.8 mm 0 mps 693 mmHg 97%
01:00 +23°C° 0.8 mm 0 mps 693 mmHg 97%
02:00 +23°C° 0.5 mm 0 mps 693 mmHg 97%
03:00 +23°C° 0.5 mm 0 mps 693 mmHg 97%
04:00 +22°C° 0.5 mm 0 mps 692 mmHg 97%
05:00 +23°C° 0.1 mm 0 mps 693 mmHg 97%
06:00 +23°C° 0.1 mm 0 mps 693 mmHg 96%
07:00 +23°C° 0.1 mm 0 mps 694 mmHg 96%
08:00 +25°C° 0.1 mm 0 mps 694 mmHg 88%
09:00 +27°C° 0.1 mm 0 mps 694 mmHg 81%
10:00 +28°C° 0.1 mm 0 mps 694 mmHg 73%
11:00 +31°C° 1 mm 1 mps 694 mmHg 72%
12:00 +32°C° 1 mm 1 mps 693 mmHg 71%
13:00 +33°C° 1 mm 1 mps 693 mmHg 69%
14:00 +32°C° 2 mm 1 mps 692 mmHg 76%
15:00 +30°C° 2 mm 1 mps 691 mmHg 82%
16:00 +29°C° 2 mm 1 mps 691 mmHg 88%
17:00 +28°C° 1.5 mm 1 mps 691 mmHg 91%
18:00 +27°C° 1.5 mm 1 mps 691 mmHg 93%
19:00 +26°C° 1.5 mm 1 mps 692 mmHg 96%
20:00 +25°C° 0.8 mm 1 mps 692 mmHg 96%
21:00 +25°C° 0.8 mm 1 mps 693 mmHg 96%
22:00 +25°C° 0.8 mm 1 mps 693 mmHg 96%
23:00 +23°C° 1.6 mm 0 mps 693 mmHg 97%
Show more